Weather in Ordynskoye

Russia / Novosibirsk Oblast     54°22′01″N   81°53′58″E
temp.,
°C
wind,
m/s
gust,
m/s
humid.,
%
clouds,
%
prec.,
mm/h
press.,
hPa
HPBL,
m
27 february, sat
sat2701:00−24sw51194100 0.1 1037592
04:00−25sw41094100 0.1 1037504
07:00−25sw4996100 0.1 1037475
10:00−24sw4894100 0.1 1038442
13:00−22sw4792100 0.1 1038548
16:00−21sw4691100 0.0 1038574
19:00−25ssw349699 0.1 103870
22:00−28ssw33967 0.0 103962
28 february, sun
sun2801:00−29ssw23963 0.0 103942
04:00−29s339616 0.0 103849
07:00−28sse349750 0.0 103875
10:00−25sse489350 0.0 1036212
13:00−19sse499275 0.0 1033339
16:00−14sse51088100 0.0 1030578
19:00−11sse41094100 0.3 1026723
22:00−12sse51294100 0.6 1022493
1 march, mon
mon101:00−8s61393100 1.3 1018801
04:00−7s61394100 1.6 1014774
07:00−5s71493100 3.3 1010857
10:00−2ssw101791100 1.8 1008887
13:000sw81498100 4.0 10071033
16:000sw81497100 2.0 10071062
19:00−1wsw61291100 2.4 1008768
22:00−2wsw51295100 0.4 1010680
2 march, tue
tue201:00−5wnw2697100 1.5 1012359
04:00−11n0197100 0.5 101521
07:00−13w2497100 0.7 1017135
10:00−13wsw249799 0.1 1018184
13:00−10wsw249399 0.1 1019397
16:00−7wsw2390100 0.1 1017490
19:00−10ssw1196100 0.1 101621
22:00−13ene1297100 0.1 101531
3 march, wed
wed301:00−12ene1296100 0.1 101331
04:00−11nne2396100 0.6 1012114
07:00−13n1297100 1.1 101336
10:00−11w1195100 0.3 1014126
13:00−8wsw249298 0.6 1015490
16:00−8wsw4592100 0.4 1016623
19:00−11w3794100 0.8 1018409
22:00−13wsw379697 0.2 1021264